MAKERSAT 0 (43016 NORAD) Tracking and Keplerian Element Data

This shows tracking and keplerian element data for the satellite.

Feedback or suggestion? Click here.




ElementValue
Catalog43016
NameMAKERSAT 0
Epoch Orbit5403
Epoch Day323.21592365
Epoch Year2018
RAAN247.96
Inclination97.7142
Eccentricity0.0259825
Argument of Perigee126.63
Mean Anonmoly235.9112
Mean Motion14.78387556
Decay Rate5.85E-06
L11 43016U 17073D 18323.21592365 .00000585 00000-0 50664-4 0 9995
L22 43016 97.7142 247.9600 0259825 126.6300 235.9112 14.78387556 54032

Live tracking and technical data element details for MAKERSAT 0 (NORAD 43016). MAKERSAT 0 can be tracked NOW for your location showing map with azimuth and elevation plus other details from your city location.

Track the satellite on the map from your city or location and see movement details for azimuth, elevation, latitude, longitude, range, height, and movement on the map or in text.







IsCatalogInMostPopularTable: catalog: 43016, numindb: 31
Update: records affected: 1



GetName: 43016 MAKERSAT 0

Hit Count: updated at: Wed, 21 Nov 2018 05:25:36 GMT